Fort Indiantown Gap, PA

11:04 AM EDT on April 24, 2017 (GMT -0400)
Muir Army Air Field

Weather History for KMUI - April, 2013

Change the Weather History Date:

Wednesday, April 10, 2013

  Actual Average Record
Temperature  
Mean Temperature 69 °F -  
Max Temperature 84 °F 56 °F 84 °F (2013)
Min Temperature 54 °F 42 °F 27 °F (2016)
Cooling Degree Days 4    
Growing Degree Days 19 (Base 50)    
Moisture  
Dew Point 57 °F    
Average Humidity 65    
Maximum Humidity 99    
Minimum Humidity 37    
Precipitation  
Precipitation 0.36 in - - ()
Sea Level Pressure  
Sea Level Pressure 29.85 in    
Wind  
Wind Speed 8 mph (West)    
Max Wind Speed 25 mph    
Max Gust Speed 59 mph    
Visibility 8 miles    
Events Rain , Thunderstorm    
Averages and records for this station are not official NWS values.
T = Trace of Precipitation, MM = Missing Value Source: NWS Daily Summary

Daily Weather History Graph

Daily Weather History Graph

Search for Another Location

Airport or City:

Trip Planner

Search our weather history database for the weather conditions in past years. The results will help you decide how hot, cold, wet, or windy it might be!

Date:

Astronomy

Apr. 10, 2013 Rise Set
Actual Time 6:35 AM EDT 7:40 PM EDT
Civil Twilight 6:07 AM EDT 8:08 PM EDT
Nautical Twilight 5:34 AM EDT 8:41 PM EDT
Astronomical Twilight 4:59 AM EDT 9:16 PM EDT
Moon 6:30 AM EDT (4/10) 8:14 PM EDT (4/10)
Length of Visible Light 14h 01m
Length of Day
13h 05m
New Moon, 0% of the Moon is Illuminated
Apr 10
New Moon
Apr 18
First Quarter
Apr 25
Full
May 2
Last Quarter
May 9
New

Hourly Weather History & Observations

Time (EDT) Temp. Heat Index Dew Point Humidity Pressure Visibility Wind Dir Wind Speed Gust Speed Precip Events Conditions
12:55 AM 60.6 °F - 51.3 °F 71% 29.88 in 10.0 mi Calm Calm - N/A   Partly Cloudy
1:55 AM 58.3 °F - 51.6 °F 78% 29.88 in 10.0 mi Calm Calm - N/A   Partly Cloudy
2:55 AM 58.1 °F - 51.4 °F 78% 29.87 in 10.0 mi Calm Calm - N/A   Partly Cloudy
3:55 AM 59.9 °F - 50.9 °F 72% 29.88 in 10.0 mi WSW 4.6 mph - N/A   Clear
4:55 AM 55.9 °F - 51.6 °F 85% 29.88 in 10.0 mi Calm Calm - N/A   Clear
5:55 AM 54.7 °F - 51.8 °F 90% 29.90 in 10.0 mi NNW 3.5 mph - N/A   Scattered Clouds
6:55 AM 66.6 °F - 51.6 °F 59% 29.91 in 10.0 mi West 6.9 mph - N/A   Overcast
7:55 AM 64.0 °F - 54.5 °F 71% 29.93 in 10.0 mi Calm Calm - N/A   Mostly Cloudy
8:55 AM 69.3 °F - 53.1 °F 56% 29.93 in 10.0 mi Calm Calm - N/A   Clear
9:55 AM 75.9 °F - 53.8 °F 46% 29.91 in 10.0 mi SW 10.4 mph - N/A   Clear
10:55 AM 80.1 °F 80.1 °F 54.5 °F 41% 29.90 in 10.0 mi SW 12.7 mph - N/A   Clear
11:55 AM 80.1 °F 80.1 °F 55.0 °F 42% 29.89 in 10.0 mi SSW 8.1 mph - N/A   Mostly Cloudy
12:55 PM 82.0 °F 81.6 °F 56.3 °F 41% 29.88 in 10.0 mi WSW 15.0 mph - N/A   Mostly Cloudy
1:55 PM 84.2 °F 83.2 °F 55.9 °F 38% 29.86 in 10.0 mi WSW 9.2 mph 21.9 mph N/A   Scattered Clouds
2:55 PM 82.8 °F 82.2 °F 56.8 °F 41% 29.84 in 10.0 mi SW 10.4 mph - N/A   Mostly Cloudy
3:55 PM 84.2 °F 83.2 °F 56.1 °F 38% 29.81 in 10.0 mi SSW 9.2 mph - N/A   Scattered Clouds
4:55 PM 83.8 °F 82.8 °F 55.4 °F 38% 29.79 in 10.0 mi SW 10.4 mph - N/A   Mostly Cloudy
5:10 PM 84.2 °F 83.0 °F 55.4 °F 37% 29.79 in 10.0 mi WSW 12.7 mph - N/A Rain Light Rain
5:24 PM 82.4 °F 82.0 °F 57.2 °F 42% 29.78 in 10.0 mi West 10.4 mph 19.6 mph N/A Thunderstorm Scattered Clouds
5:55 PM 81.5 °F 81.1 °F 55.8 °F 41% 29.78 in 10.0 mi West 5.8 mph - 0.00 in   Clear
6:33 PM 78.8 °F - 57.2 °F 47% 29.81 in 5.0 mi WNW 23.0 mph 40.3 mph N/A Rain , Thunderstorm Light Rain
6:34 PM 78.8 °F - 59.0 °F 51% 29.82 in 2.5 mi WNW 19.6 mph 40.3 mph N/A Rain , Thunderstorm Light Rain
6:35 PM 78.8 °F - 60.8 °F 54% 29.82 in 1.2 mi West 20.7 mph 40.3 mph N/A Rain , Thunderstorm Light Rain
6:36 PM 77.0 °F - 60.8 °F 57% 29.80 in 0.8 mi SW 25.3 mph 40.3 mph N/A Rain , Thunderstorm Heavy Rain
6:37 PM 75.2 °F - 62.6 °F 65% 29.80 in 3.0 mi SW 25.3 mph 40.3 mph N/A Rain , Thunderstorm Thunderstorms and Rain
6:45 PM 69.8 °F - 60.8 °F 73% 29.81 in 4.0 mi West 10.4 mph 34.5 mph N/A Rain , Thunderstorm Light Thunderstorms and Rain
6:46 PM 69.8 °F - 60.8 °F 73% - 4.0 mi North - - N/A Rain , Thunderstorm Light Thunderstorms and Rain
6:55 PM 68.0 °F - 64.8 °F 89% 29.76 in 3.0 mi Variable 6.9 mph - 0.19 in Rain , Thunderstorm Light Thunderstorms and Rain
7:05 PM 68.0 °F - 62.6 °F 83% 29.77 in 10.0 mi WNW 8.1 mph - N/A Thunderstorm Thunderstorm
7:09 PM 68.0 °F - 64.4 °F 88% 29.76 in 10.0 mi WNW 6.9 mph - N/A Thunderstorm Unknown
7:55 PM 68.4 °F - 64.0 °F 86% 29.75 in 10.0 mi Calm Calm - 0.00 in   Clear
8:55 PM 65.3 °F - 64.9 °F 99% 29.82 in 10.0 mi NNW 4.6 mph - N/A   Overcast
9:05 PM 69.8 °F - 59.0 °F 68% 29.88 in 10.0 mi WNW 19.6 mph 34.5 mph N/A Rain , Thunderstorm Light Rain
9:06 PM 69.8 °F - 59.0 °F 68% 29.89 in 10.0 mi WNW 18.4 mph 35.7 mph N/A Rain , Thunderstorm Light Thunderstorms and Rain
9:10 PM 69.8 °F - 59.0 °F 68% 29.90 in 2.5 mi WNW 25.3 mph 58.7 mph N/A Rain , Thunderstorm Light Thunderstorms and Rain
9:11 PM 69.8 °F - 59.0 °F 68% 29.90 in 2.0 mi NW 20.7 mph 58.7 mph N/A Rain , Thunderstorm Heavy Thunderstorms and Rain
9:12 PM 68.0 °F - 59.0 °F 73% 29.90 in 1.8 mi NW 20.7 mph 58.7 mph N/A Rain , Thunderstorm Heavy Thunderstorms and Rain
9:14 PM 68.0 °F - 59.0 °F 73% 29.90 in 1.5 mi NW 16.1 mph 58.7 mph N/A Rain , Thunderstorm Heavy Thunderstorms and Rain
9:18 PM 64.4 °F - 57.2 °F 77% 29.89 in 1.8 mi NNW 11.5 mph 58.7 mph N/A Rain , Thunderstorm Heavy Thunderstorms and Rain
9:19 PM 64.4 °F - 57.2 °F 77% 29.88 in 2.0 mi WNW 12.7 mph 46.0 mph N/A Rain , Thunderstorm Light Thunderstorms and Rain
9:20 PM 64.4 °F - 57.2 °F 77% 29.88 in 3.0 mi WNW 15.0 mph 32.2 mph N/A Rain , Thunderstorm Light Thunderstorms and Rain
9:31 PM 64.4 °F - 55.4 °F 73% 29.87 in 10.0 mi NW 15.0 mph 25.3 mph N/A Rain , Thunderstorm Light Rain
9:46 PM 64.4 °F - 55.4 °F 73% 29.85 in 10.0 mi North 10.4 mph - N/A Thunderstorm Scattered Clouds
9:55 PM 65.8 °F - 55.2 °F 69% 29.84 in 10.0 mi West 4.6 mph 18.4 mph 0.17 in   Partly Cloudy
10:55 PM 66.0 °F - 56.8 °F 72% 29.84 in 10.0 mi Variable 3.5 mph - N/A   Clear
11:55 PM 67.3 °F - 56.7 °F 69% 29.87 in 10.0 mi WSW 10.4 mph 18.4 mph N/A   Mostly Cloudy